Humboldt, Iowa, United States (50548)
Lat: 42.72N, Lon: 94.22W
Wx Zone: IAZ024
Local Info
Past Weather Observations for Saturday, August 16, 2014

NOTE: This archive is for the closest National Weather Service station to Humboldt. Information may differ from the station used for current weather conditions.

Click here for Long-term Archive

Time Weather Temperature Dewpoint Humidity Pressure Winds Precip Visibility
23:55
Clear
64°F / 18°C 64°F / 18°C 100% 29.95 in
(1014 mb)
Calm - 5SM
23:35
Clear
66°F / 19°C 64°F / 18°C 94% 29.95 in
(1014 mb)
Calm - 2 1/2SM
23:15
Partly Cloudy
66°F / 19°C 64°F / 18°C 94% 29.95 in
(1014 mb)
Calm - 5SM
22:55
Mostly Cloudy
66°F / 19°C 64°F / 18°C 94% 29.95 in
(1014 mb)
Calm - 1/2SM
22:35
Partly Cloudy
66°F / 19°C 66°F / 19°C 100% 29.95 in
(1014 mb)
Calm - 3SM
22:15
Clear
66°F / 19°C 66°F / 19°C 100% 29.95 in
(1014 mb)
Calm - 5SM
21:55
Clear
66°F / 19°C 66°F / 19°C 100% 29.95 in
(1014 mb)
Calm - 1SM
21:35
Clear
66°F / 19°C 64°F / 18°C 94% 29.95 in
(1014 mb)
Calm - 9SM
21:15
Clear
68°F / 20°C 66°F / 19°C 94% 29.95 in
(1014 mb)
Calm - 8SM
20:55
Clear
70°F / 21°C 66°F / 19°C 88% 29.95 in
(1014 mb)
Calm - 10SM
20:35
Clear
70°F / 21°C 66°F / 19°C 88% 29.92 in
(1013 mb)
Calm - 10SM
20:15
Partly Cloudy
70°F / 21°C 66°F / 19°C 88% 29.92 in
(1013 mb)
Calm - 10SM
19:55
Clear
72°F / 22°C 68°F / 20°C 88% 29.92 in
(1013 mb)
Calm - 10SM
19:35
Clear
72°F / 22°C 70°F / 21°C 94% 29.92 in
(1013 mb)
Calm - 10SM
19:15
Clear
73°F / 23°C 70°F / 21°C 89% 29.92 in
(1013 mb)
Calm - 10SM
18:55
Partly Cloudy
75°F / 24°C 70°F / 21°C 83% 29.92 in
(1013 mb)
Calm - 10SM
18:35
Mostly Cloudy
77°F / 25°C 70°F / 21°C 79% 29.92 in
(1013 mb)
SSE 3.5 mph
(SSE 6 kph)
- 10SM
18:15
Partly Cloudy
77°F / 25°C 70°F / 21°C 79% 29.89 in
(1012 mb)
SSE 4.6 mph
(SSE 7 kph)
- 10SM
17:55
Clear
79°F / 26°C 70°F / 21°C 74% 29.89 in
(1012 mb)
SE 4.6 mph
(SE 7 kph)
- 10SM
17:35
Clear
79°F / 26°C 70°F / 21°C 74% 29.89 in
(1012 mb)
SE 4.6 mph
(SE 7 kph)
- 10SM
17:15
Partly Cloudy
79°F / 26°C 70°F / 21°C 74% 29.89 in
(1012 mb)
SE 4.6 mph
(SE 7 kph)
- 10SM
16:55
Mostly Cloudy
79°F / 26°C 70°F / 21°C 74% 29.92 in
(1013 mb)
SE 4.6 mph
(SE 7 kph)
- 10SM
16:35
Mostly Cloudy
81°F / 27°C 72°F / 22°C 74% 29.92 in
(1013 mb)
SE 5.8 mph
(SE 9 kph)
- 10SM
16:15
Partly Cloudy
81°F / 27°C 68°F / 20°C 66% 29.92 in
(1013 mb)
Calm - 10SM
15:55
Mostly Cloudy
81°F / 27°C 70°F / 21°C 70% 29.89 in
(1012 mb)
E 4.6 mph
(E 7 kph)
- 10SM
15:35
Partly Cloudy
79°F / 26°C 68°F / 20°C 70% 29.89 in
(1012 mb)
Calm - 10SM
15:15
Partly Cloudy
81°F / 27°C 70°F / 21°C 70% 29.89 in
(1012 mb)
Calm - 10SM
14:55
Partly Cloudy
81°F / 27°C 70°F / 21°C 70% 29.92 in
(1013 mb)
Calm - 10SM
14:35
Partly Cloudy
81°F / 27°C 70°F / 21°C 70% 29.92 in
(1013 mb)
Calm - 10SM
14:15
Partly Cloudy
79°F / 26°C 70°F / 21°C 74% 29.92 in
(1013 mb)
E 5.8 mph
(E 9 kph)
- 10SM
13:55
Mostly Cloudy
79°F / 26°C 70°F / 21°C 74% 29.92 in
(1013 mb)
ENE 4.6 mph
(ENE 7 kph)
- 10SM
13:35
Mostly Cloudy
79°F / 26°C 70°F / 21°C 74% 29.92 in
(1013 mb)
ENE 4.6 mph
(ENE 7 kph)
- 10SM
13:15
Mostly Cloudy
77°F / 25°C 70°F / 21°C 79% 29.89 in
(1012 mb)
E 5.8 mph
(E 9 kph)
- 10SM
12:55
Mostly Cloudy
77°F / 25°C 70°F / 21°C 79% 29.92 in
(1013 mb)
E 4.6 mph
(E 7 kph)
- 10SM
12:35
Overcast
79°F / 26°C 70°F / 21°C 74% 29.92 in
(1013 mb)
E 6.9 mph
(E 11 kph)
- 10SM
12:15
Overcast
75°F / 24°C 70°F / 21°C 83% 29.92 in
(1013 mb)
ENE 5.8 mph
(ENE 9 kph)
- 10SM
11:55
Overcast
75°F / 24°C 70°F / 21°C 83% 29.92 in
(1013 mb)
E 8.1 mph
(E 13 kph)
- 10SM
11:35
Overcast
75°F / 24°C 70°F / 21°C 83% 29.92 in
(1013 mb)
E 8.1 mph
(E 13 kph)
- 10SM
11:15
Overcast
73°F / 23°C 70°F / 21°C 89% 29.92 in
(1013 mb)
E 8.1 mph
(E 13 kph)
- 10SM
10:55
Overcast
73°F / 23°C 68°F / 20°C 83% 29.92 in
(1013 mb)
E 8.1 mph
(E 13 kph)
- 10SM
10:35
Overcast
73°F / 23°C 68°F / 20°C 83% 29.92 in
(1013 mb)
ENE 6.9 mph
(ENE 11 kph)
- 10SM
10:15
Mostly Cloudy
72°F / 22°C 68°F / 20°C 88% 29.92 in
(1013 mb)
ENE 5.8 mph
(ENE 9 kph)
- 10SM
09:55
Overcast
72°F / 22°C 66°F / 19°C 83% 29.92 in
(1013 mb)
NNE 4.6 mph
(NNE 7 kph)
- 10SM
09:35
Overcast
70°F / 21°C 66°F / 19°C 88% 29.92 in
(1013 mb)
N 3.5 mph
(N 6 kph)
- 9SM
09:15
Overcast
68°F / 20°C 66°F / 19°C 94% 29.92 in
(1013 mb)
Calm - 7SM
08:55
Overcast
66°F / 19°C 66°F / 19°C 100% 29.92 in
(1013 mb)
NE 4.6 mph
(NE 7 kph)
- 4SM
08:35
Overcast
66°F / 19°C 66°F / 19°C 100% 29.92 in
(1013 mb)
E 3.5 mph
(E 6 kph)
- 2 1/2SM
08:15
Overcast
66°F / 19°C 66°F / 19°C 100% 29.92 in
(1013 mb)
E 4.6 mph
(E 7 kph)
- 1 1/2SM
07:55
Overcast
66°F / 19°C 66°F / 19°C 100% 29.92 in
(1013 mb)
E 4.6 mph
(E 7 kph)
- 1/2SM
07:35
Overcast
66°F / 19°C 66°F / 19°C 100% 29.92 in
(1013 mb)
NE 3.5 mph
(NE 6 kph)
- 1/2SM
07:15
Overcast
66°F / 19°C 64°F / 18°C 94% 29.92 in
(1013 mb)
NE 3.5 mph
(NE 6 kph)
- 1/4SM
06:55
Overcast
66°F / 19°C 64°F / 18°C 94% 29.92 in
(1013 mb)
N 3.5 mph
(N 6 kph)
- 1/4SM
06:35
Overcast
66°F / 19°C 64°F / 18°C 94% 29.92 in
(1013 mb)
ENE 3.5 mph
(ENE 6 kph)
- 3/4SM
06:15
Overcast
66°F / 19°C 64°F / 18°C 94% 29.92 in
(1013 mb)
ENE 3.5 mph
(ENE 6 kph)
- 1/2SM
05:55
Overcast
66°F / 19°C 64°F / 18°C 94% 29.92 in
(1013 mb)
E 5.8 mph
(E 9 kph)
- 1/4SM
05:35
Overcast
66°F / 19°C 64°F / 18°C 94% 29.92 in
(1013 mb)
E 5.8 mph
(E 9 kph)
- 1/4SM
05:15
Overcast
66°F / 19°C 64°F / 18°C 94% 29.92 in
(1013 mb)
ENE 3.5 mph
(ENE 6 kph)
- 3/4SM
04:55
Overcast
66°F / 19°C 64°F / 18°C 94% 29.92 in
(1013 mb)
Calm - 1SM
04:35
Overcast
66°F / 19°C 64°F / 18°C 94% 29.92 in
(1013 mb)
Calm - 1 1/4SM
04:15
Overcast
66°F / 19°C 64°F / 18°C 94% 29.89 in
(1012 mb)
Calm - 1 3/4SM
03:55
Overcast
66°F / 19°C 64°F / 18°C 94% 29.89 in
(1012 mb)
SE 3.5 mph
(SE 6 kph)
- 3SM
03:35
Overcast
66°F / 19°C 64°F / 18°C 94% 29.89 in
(1012 mb)
SSE 3.5 mph
(SSE 6 kph)
- 4SM
03:15
Overcast
66°F / 19°C 66°F / 19°C 100% 29.89 in
(1012 mb)
SSE 3.5 mph
(SSE 6 kph)
- 3SM
02:55
Overcast
66°F / 19°C 64°F / 18°C 94% 29.89 in
(1012 mb)
S 3.5 mph
(S 6 kph)
- 5SM
02:35
Overcast
66°F / 19°C 64°F / 18°C 94% 29.89 in
(1012 mb)
S 4.6 mph
(S 7 kph)
- 5SM
02:15
Overcast
66°F / 19°C 66°F / 19°C 100% 29.89 in
(1012 mb)
S 5.8 mph
(S 9 kph)
- 5SM
01:55
Overcast
66°F / 19°C 66°F / 19°C 100% 29.89 in
(1012 mb)
SSE 3.5 mph
(SSE 6 kph)
- 6SM
01:35
Overcast
66°F / 19°C 66°F / 19°C 100% 29.89 in
(1012 mb)
SSE 9.2 mph
(SSE 15 kph)
- 5SM
01:15
Overcast
66°F / 19°C 66°F / 19°C 100% 29.89 in
(1012 mb)
SSE 5.8 mph
(SSE 9 kph)
- 6SM
00:55
Overcast
66°F / 19°C 66°F / 19°C 100% 29.89 in
(1012 mb)
SSE 3.5 mph
(SSE 6 kph)
- 6SM
00:35
Overcast
66°F / 19°C 66°F / 19°C 100% 29.89 in
(1012 mb)
SE 4.6 mph
(SE 7 kph)
- 7SM
00:15
Overcast
66°F / 19°C 66°F / 19°C 100% 29.89 in
(1012 mb)
SE 4.6 mph
(SE 7 kph)
- 7SM
Time Weather Temperature Dewpoint Humidity Pressure Winds Precip Visibility


Weather for websites

WeatherForYou.com, LLC is not responsible for any damages or problems caused by this service. Current weather conditions are obtained from the closest station including government and personal stations which may have varying degrees of accuracy. Weather forecasts are derived from the NOAA NDFD. Like all things, this site belongs to Jesus Christ... He just trusts me to maintain it. If you have any questions or comments email webmaster@weatherforyou.com

Copyright © 2014, WeatherForYou.com LLC. All rights reserved.